User: anonymous   Login
Location: Ostrava
(49.8330°N, 18.2830°E)
Time: 10:23:47
(UTC+01:00)
Language:

Iridium 7 - Orbit

View from above orbital plane
View from above orbital plane
View from above satellite
View from above satellite

Ground track
Ground track

The orbit data is extracted from the following two-line orbital elements,

1 24793U 97020B   17057.36805945  .00000222  00000-0  72124-4 0  9999
2 24793  86.4000   5.2906 0002226  85.7955 274.3495 14.34213511 37311
Epoch (UTC): 26 February 2017 08:50:00
Eccentricity: 0.0002226
inclination: 86.4000°
perigee height: 776 km
apogee height: 779 km
right ascension of ascending node: 5.2906°
argument of perigee: 85.7955°
revolutions per day: 14.34213511
mean anomaly at epoch: 274.3495°
orbit number at epoch: 3731

The dashed part of the orbit path shows where the satellite is in the earth's shadow,  

DLR